Location: ????????
(60.5616°N, 46.8254°E)
Time: 08:04:18
(UTC+00:00)

Cosmos 2233 Rocket - Pass Details

Date: 18 February 2020
Orbit: 954 x 990 km, 82.9° (Epoch: 03 April)

Event Time Altitude Azimuth Distance (km) Brightness Sun altitude
Rises 16:46:24 0° 198° (SSW) 3,628 7.0 -22.3°
Reaches altitude 10° 16:48:53 10° 200° (SSW) 2,688 6.3 -22.6°
Maximum altitude 16:55:02 75° 286° (WNW) 1,004 4.1 -23.3°
Drops below altitude 10° 17:01:17 10° 12° (NNE) 2,725 6.4 -24.0°
Sets 17:03:49 0° 15° (NNE) 3,681 7.1 -24.3°
